Showing default

JACKAL-02, 59134

Orbit data source: Space-Track

JACKAL-02, 59134 is a payload satellite owned by True Anomaly (US) in SSO that was launched on Mon, 04 Mar 2024 UTC via an FALCON 9 launch vehicle from the Air Force Western Test Range (AFWTR). Payload-class satellites include a variety of spacecraft equipped with specific instruments for various scientific and technological missions. These include communications satellites like Starlink; space stations such as the ISS; scientific satellites like the Hubble; Earth observation satellites from companies like Planet Labs, Umbra, and HawkEye 360; GPS; miniature CubeSats for education and research; and military/defense satellites.

Loading next visibility...
Identifier
59134, 2024-043AN
Orbit
SSO
Country
Flag of USUS
Related business
Manufacturer
True Anomaly
Mission
Operational Commercial Weather
Bus & Motor
JACKAL, Unknown motor
Mass
275 kg wet, 275 kg dry
Launch date (UTC)
2024-03-04 (2 years ago)
Launch vehicle
FALCON 9
Launch site
Air Force Western Test Range (AFWTR)
Object type
Payload
Rocket body
Debris
Shape & HBR
Box + 2 Pan, 0.5 m
Radar Cross Section
0.126 m², Large (>1 m²)

Expand to show TLE details & history
Last TLE update: 18 hours ago

TLE from 18 hours ago
0 JACKAL-02
1 59134U 24043AN  25259.62586951  .00012761  00000-0  37730-3 0  9990
2 59134  97.5237  31.9605 0010077 110.9637 249.2685 15.35014638 85491
Epoch: 2025-09-16T15:01Z
TLE epoch observation values (Epoch: 2025-09-16T15:01:15.125Z)
Latitude
-0.00005°
Longitude
170.83401°
Altitude
466.43 km
Speed
7.632 km/s
True Right ascension
02h 07m 50s
True Declination
0° 00' 00"
Sunlit
Object was in full shadow at epoch
Visualization orbit readout
Latitude
Unknown
Longitude
Unknown
Altitude
Unknown
Speed
Unknown
Apparent Right ascension
Unknown
Apparent Declination
Unknown
Sunlit
N/A
Visualization observer readout
Local Sidereal Time
01:51:12
Azimuth
Unknown
Elevation
Unknown
Doppler factor
Unknown
Orbital elements
Apogee altitude
464.717 km
Perigee altitude
450.939 km
Semi-major axis
6,835.965 km
Eccentricity
0.00101
Inclination
97.5237°
RAAN
31.9605°
Arg. of periapsis
110.9637°
True anomaly
249.16055°
Mean anomaly
249.2685°
Eccentric anomaly
249.21452°
Mean motion
3.84011 °/min
Orbital period
93.75 mins
BSTAR
0.0003773
Loading maneuver chart data...
Computing Atmospheric mass density...
Loading historical data...
Loading historical data...
Loading historical data...
Loading historical data...
Loading historical data...
Loading historical data...
Loading historical data...

Documentation

Showing up to 5 results
|